Terug naar catalogus

STARLINK-38143

ActiefCommunicatieSSO
NORAD 100317·PAYLOAD·🇺🇸 United States

Gelanceerd Aug 12, 2026 vanaf Vandenberg Space Force Base

Loading…

Volgende Passages (komende 24 uur)

TLE

VersSource: Space-Track

Epoch: Sep 14, 2026, 18:29 UTC

1 A0317U 26184S   26257.77060688 -.00143846  00000-0 -45235-2 0  9995
2 A0317  97.2841 122.9911 0001149 111.6099 248.5266 15.33549800  6480

Volg STARLINK-38143 in realtime met AllMySat

Download on the App Store